TimeEST,TemperatureF,Dew PointF,Humidity,Sea Level PressureIn,VisibilityMPH,Wind Direction,Wind SpeedMPH,Gust SpeedMPH,PrecipitationIn,Events,Conditions,WindDirDegrees,DateUTC
12:15 AM,42.8,32.0,66,29.76,7.0,WSW,8.1,-,N/A,,Clear,250,2012-12-27 05:15:00
12:35 AM,41.0,32.0,70,29.77,7.0,West,10.4,17.3,N/A,,Clear,260,2012-12-27 05:35:00
12:55 AM,41.0,32.0,70,29.78,7.0,West,6.9,16.1,N/A,,Clear,260,2012-12-27 05:55:00
1:15 AM,41.0,32.0,70,29.78,7.0,West,8.1,-,N/A,,Clear,260,2012-12-27 06:15:00
1:35 AM,41.0,32.0,70,29.79,7.0,WSW,5.8,-,N/A,,Clear,250,2012-12-27 06:35:00
1:55 AM,41.0,32.0,70,29.79,7.0,WSW,4.6,-,N/A,,Clear,250,2012-12-27 06:55:00
2:15 AM,41.0,32.0,70,29.81,7.0,WSW,9.2,-,N/A,,Clear,250,2012-12-27 07:15:00
2:35 AM,39.2,32.0,75,29.81,7.0,WSW,5.8,-,N/A,,Clear,250,2012-12-27 07:35:00
2:55 AM,39.2,32.0,75,29.82,7.0,WSW,6.9,-,N/A,,Clear,250,2012-12-27 07:55:00
3:15 AM,39.2,32.0,75,29.82,7.0,West,4.6,-,N/A,,Clear,260,2012-12-27 08:15:00
3:35 AM,39.2,32.0,75,29.83,7.0,WSW,4.6,-,N/A,,Clear,250,2012-12-27 08:35:00
3:55 AM,37.4,32.0,81,29.82,7.0,WSW,4.6,-,N/A,,Clear,250,2012-12-27 08:55:00
4:15 AM,37.4,32.0,81,29.83,7.0,WSW,5.8,-,N/A,,Clear,250,2012-12-27 09:15:00
4:55 AM,37.4,32.0,81,29.84,7.0,WSW,5.8,-,N/A,,Clear,250,2012-12-27 09:55:00
5:15 AM,37.4,32.0,81,29.84,7.0,WSW,5.8,-,N/A,,Clear,250,2012-12-27 10:15:00
5:35 AM,37.4,32.0,81,29.86,7.0,WSW,5.8,-,N/A,,Clear,250,2012-12-27 10:35:00
5:55 AM,37.4,32.0,81,29.87,7.0,WSW,4.6,-,N/A,,Clear,240,2012-12-27 10:55:00
6:15 AM,35.6,32.0,87,29.89,7.0,WSW,4.6,-,N/A,,Clear,240,2012-12-27 11:15:00
6:35 AM,35.6,32.0,87,29.89,10.0,WSW,4.6,-,N/A,,Clear,240,2012-12-27 11:35:00
6:55 AM,35.6,32.0,87,29.91,7.0,WSW,3.5,-,N/A,,Clear,240,2012-12-27 11:55:00
7:15 AM,35.6,32.0,87,29.92,5.0,SW,5.8,-,N/A,,Clear,230,2012-12-27 12:15:00
7:35 AM,35.6,32.0,87,29.93,5.0,WSW,5.8,-,N/A,,Clear,240,2012-12-27 12:35:00
7:55 AM,35.6,32.0,87,29.94,7.0,SW,4.6,-,N/A,,Clear,230,2012-12-27 12:55:00
8:15 AM,37.4,32.0,81,29.94,7.0,WSW,4.6,-,N/A,,Clear,250,2012-12-27 13:15:00
8:35 AM,37.4,32.0,81,29.95,5.0,WSW,5.8,-,N/A,,Haze,240,2012-12-27 13:35:00
8:55 AM,39.2,32.0,75,29.96,7.0,West,4.6,-,N/A,,Clear,260,2012-12-27 13:55:00
9:15 AM,41.0,32.0,70,29.96,7.0,West,8.1,-,N/A,,Clear,260,2012-12-27 14:15:00
9:35 AM,42.8,32.0,66,29.97,7.0,West,8.1,-,N/A,,Clear,280,2012-12-27 14:35:00
9:55 AM,42.8,32.0,66,29.97,5.0,West,4.6,-,N/A,,Haze,270,2012-12-27 14:55:00
10:15 AM,44.6,33.8,66,29.98,4.0,WNW,4.6,-,N/A,,Haze,290,2012-12-27 15:15:00
10:35 AM,44.6,33.8,66,29.98,7.0,West,8.1,-,N/A,,Clear,270,2012-12-27 15:35:00
10:55 AM,46.4,33.8,62,29.98,7.0,West,5.8,-,N/A,,Clear,270,2012-12-27 15:55:00
11:35 AM,46.4,33.8,62,29.97,7.0,West,6.9,-,N/A,,Clear,270,2012-12-27 16:35:00
11:55 AM,48.2,33.8,58,29.96,7.0,WNW,4.6,-,N/A,,Clear,290,2012-12-27 16:55:00
12:15 PM,50.0,33.8,54,29.96,7.0,WSW,6.9,-,N/A,,Clear,250,2012-12-27 17:15:00
12:35 PM,50.0,33.8,54,29.96,7.0,West,5.8,-,N/A,,Clear,280,2012-12-27 17:35:00
12:55 PM,50.0,33.8,54,29.96,7.0,WNW,4.6,-,N/A,,Clear,290,2012-12-27 17:55:00
1:15 PM,50.0,33.8,54,29.96,7.0,West,6.9,-,N/A,,Clear,280,2012-12-27 18:15:00
1:35 PM,51.8,33.8,50,29.96,7.0,West,6.9,-,N/A,,Clear,280,2012-12-27 18:35:00
1:55 PM,51.8,33.8,50,29.96,7.0,West,3.5,-,N/A,,Clear,270,2012-12-27 18:55:00
2:15 PM,51.8,33.8,50,29.96,5.0,WNW,5.8,-,N/A,,Haze,300,2012-12-27 19:15:00
2:35 PM,51.8,33.8,50,29.97,7.0,West,4.6,-,N/A,,Clear,280,2012-12-27 19:35:00
3:15 PM,51.8,35.6,54,29.96,10.0,Calm,Calm,-,N/A,,Clear,0,2012-12-27 20:15:00
3:35 PM,51.8,35.6,54,29.96,7.0,Calm,Calm,-,N/A,,Clear,0,2012-12-27 20:35:00
3:55 PM,51.8,35.6,54,29.97,7.0,Calm,Calm,-,N/A,,Clear,0,2012-12-27 20:55:00
4:15 PM,51.8,37.4,58,29.97,7.0,WSW,3.5,-,N/A,,Clear,240,2012-12-27 21:15:00
4:35 PM,50.0,37.4,62,29.97,7.0,Calm,Calm,-,N/A,,Clear,0,2012-12-27 21:35:00
4:55 PM,48.2,37.4,66,29.98,7.0,Calm,Calm,-,N/A,,Clear,0,2012-12-27 21:55:00
5:15 PM,46.4,39.2,76,29.99,7.0,Calm,Calm,-,N/A,,Clear,0,2012-12-27 22:15:00
5:35 PM,42.8,39.2,87,30.00,10.0,Calm,Calm,-,N/A,,Clear,0,2012-12-27 22:35:00
5:55 PM,42.8,41.0,93,30.00,7.0,Calm,Calm,-,N/A,,Clear,0,2012-12-27 22:55:00
6:15 PM,41.0,41.0,100,30.01,7.0,Calm,Calm,-,N/A,,Clear,0,2012-12-27 23:15:00
6:35 PM,41.0,41.0,100,30.02,10.0,Calm,Calm,-,N/A,,Clear,0,2012-12-27 23:35:00
6:55 PM,39.2,39.2,100,30.04,7.0,Calm,Calm,-,N/A,,Clear,0,2012-12-27 23:55:00
7:35 PM,37.4,37.4,100,30.04,7.0,Calm,Calm,-,N/A,,Clear,0,2012-12-28 00:35:00
8:15 PM,37.4,37.4,100,30.05,7.0,Calm,Calm,-,N/A,,Clear,0,2012-12-28 01:15:00
8:35 PM,37.4,37.4,100,30.05,7.0,Calm,Calm,-,N/A,,Clear,0,2012-12-28 01:35:00
8:55 PM,37.4,37.4,100,30.05,7.0,Calm,Calm,-,N/A,,Clear,0,2012-12-28 01:55:00
9:15 PM,37.4,37.4,100,30.06,7.0,Calm,Calm,-,N/A,,Clear,0,2012-12-28 02:15:00
9:35 PM,35.6,35.6,100,30.06,7.0,Calm,Calm,-,N/A,,Clear,0,2012-12-28 02:35:00
9:55 PM,35.6,35.6,100,30.06,7.0,Calm,Calm,-,N/A,,Clear,0,2012-12-28 02:55:00
10:15 PM,35.6,35.6,100,30.06,7.0,Calm,Calm,-,N/A,,Clear,0,2012-12-28 03:15:00
10:35 PM,35.6,35.6,100,30.07,5.0,Calm,Calm,-,N/A,,Clear,0,2012-12-28 03:35:00
10:55 PM,33.8,33.8,100,30.06,5.0,Calm,Calm,-,N/A,,Clear,0,2012-12-28 03:55:00
11:15 PM,33.8,33.8,100,30.07,7.0,Calm,Calm,-,N/A,,Clear,0,2012-12-28 04:15:00
11:35 PM,33.8,33.8,100,30.07,5.0,Calm,Calm,-,N/A,,Clear,0,2012-12-28 04:35:00
11:55 PM,33.8,33.8,100,30.06,5.0,Calm,Calm,-,N/A,,Clear,0,2012-12-28 04:55:00